Showing default

NULINK-1, 69002

Orbit data source: Space-Track

NULINK-1, 69002 is a payload satellite owned by NuSpace (SG) in SSO that was launched on Sun, 03 May 2026 UTC via an FALCON 9 launch vehicle from the Air Force Western Test Range (AFWTR). Payload-class satellites include a variety of spacecraft equipped with specific instruments for various scientific and technological missions. These include communications satellites like Starlink; space stations such as the ISS; scientific satellites like the Hubble; Earth observation satellites from companies like Planet Labs, Umbra, and HawkEye 360; GPS; miniature CubeSats for education and research; and military/defense satellites.

Loading next visibility...
Identifier
69002, 2026-100Y
Orbit
SSO
Country
Flag of SGSG / SING
Related business
Manufacturer
NuSpace
Mission
Operational spacecraft
Bus & Motor
CUBESAT 3U, Unknown motor
Mass
3 kg wet, 3 kg dry
Launch date (UTC)
2026-05-03 (1 month ago)
Launch vehicle
FALCON 9
Launch site
Air Force Western Test Range (AFWTR)
Object type
Payload
Rocket body
Debris
Shape & HBR
Unknown shape, 14.5 m
Radar Cross Section
Medium (>0.1 m² and <1 m²)

Expand to show TLE details & history
Last TLE update: 10 hours ago

TLE from 10 hours ago
0 NULINK-1
1 69002U 26100Y   26168.65201523  .00002813  00000-0  27815-3 0  9993
2 69002  97.7351  66.1549 0002213  34.2762 325.8599 14.92692476  6764
Epoch: 2026-06-17T15:38Z
TLE epoch observation values (Epoch: 2026-06-17T15:38:54.115Z)
Latitude
-0.00013°
Longitude
-74.47719°
Altitude
591.312 km
Speed
7.565 km/s
True Right ascension
04h 24m 37s
True Declination
0° 00' 00"
Sunlit
Object was in daylight at epoch
Visualization orbit readout
Latitude
Unknown
Longitude
Unknown
Altitude
Unknown
Speed
Unknown
Apparent Right ascension
Unknown
Apparent Declination
Unknown
Sunlit
N/A
Visualization observer readout
Local Sidereal Time
12:14:36
Azimuth
Unknown
Elevation
Unknown
Doppler factor
Unknown
Orbital elements
Apogee altitude
588.102 km
Perigee altitude
585.02 km
Semi-major axis
6,964.698 km
Eccentricity
0.00022
Inclination
97.7351°
RAAN
66.1549°
Arg. of periapsis
34.2762°
True anomaly
325.84566°
Mean anomaly
325.8599°
Eccentric anomaly
325.85278°
Mean motion
3.73413 °/min
Orbital period
96.41 mins
BSTAR
0.00027815
Loading maneuver chart data...
Computing Atmospheric mass density...
Loading historical data...
Loading historical data...
Loading historical data...
Loading historical data...
Loading historical data...
Loading historical data...
Loading historical data...

Documentation

Showing up to 5 results
|